• In Austria
  • List of Countries
  • For 7 days
  • Water Temperature
  • Satellite Maps
  • Weather Map
  • News
  • Weather Widgets
  • user-avatar
    Login

    Hourly Weather Kitzbuhel

    Today, 20 October, Saturday

    Time Temperature Precipitation Wind Pressure Humidity
    00:00 +8°C° 0 mm 1 mps 681 mmHg 95%
    01:00 +8°C° 0 mm 1 mps 681 mmHg 95%
    02:00 +7°C° 0 mm 1 mps 681 mmHg 94%
    03:00 +7°C° 0 mm 1 mps 681 mmHg 94%
    04:00 +7°C° 0 mm 1 mps 681 mmHg 93%
    05:00 +7°C° 0 mm 1 mps 681 mmHg 92%
    06:00 +7°C° 0 mm 1 mps 681 mmHg 90%
    07:00 +7°C° 0 mm 1 mps 682 mmHg 88%
    08:00 +9°C° 0 mm 1 mps 682 mmHg 80%
    09:00 +11°C° 0 mm 1 mps 683 mmHg 72%
    10:00 +14°C° 0 mm 1 mps 683 mmHg 64%
    11:00 +14°C° 0 mm 1 mps 683 mmHg 61%
    12:00 +15°C° 0 mm 1 mps 683 mmHg 59%
    13:00 +16°C° 0 mm 2 mps 683 mmHg 56%
    14:00 +15°C° 0 mm 2 mps 683 mmHg 62%
    15:00 +14°C° 0 mm 2 mps 683 mmHg 68%
    16:00 +13°C° 0 mm 2 mps 683 mmHg 73%
    17:00 +12°C° 0 mm 1 mps 683 mmHg 80%
    18:00 +11°C° 0 mm 1 mps 683 mmHg 88%
    19:00 +9°C° 0 mm 1 mps 683 mmHg 95%
    20:00 +9°C° 0 mm 1 mps 683 mmHg 95%
    21:00 +9°C° 0 mm 1 mps 683 mmHg 94%
    22:00 +9°C° 0 mm 1 mps 683 mmHg 94%
    23:00 +8°C° 0 mm 1 mps 683 mmHg 94%

    Tomorrow, 21 October, Sunday

    Time Temperature Precipitation Wind Pressure Humidity
    00:00 +8°C° 0 mm 1 mps 683 mmHg 94%
    01:00 +8°C° 0 mm 1 mps 682 mmHg 94%
    02:00 +8°C° 0 mm 1 mps 682 mmHg 94%
    03:00 +8°C° 0 mm 1 mps 682 mmHg 94%
    04:00 +8°C° 0 mm 1 mps 682 mmHg 94%
    05:00 +7°C° 0 mm 1 mps 682 mmHg 94%
    06:00 +7°C° 0 mm 1 mps 682 mmHg 95%
    07:00 +5°C° 0 mm 2 mps 682 mmHg 95%
    08:00 +6°C° 0.1 mm 2 mps 682 mmHg 90%
    09:00 +7°C° 0.1 mm 2 mps 682 mmHg 84%
    10:00 +8°C° 0.1 mm 2 mps 682 mmHg 78%
    11:00 +8°C° 0 mm 2 mps 682 mmHg 73%
    12:00 +9°C° 0 mm 2 mps 681 mmHg 68%
    13:00 +9°C° 0 mm 2 mps 681 mmHg 64%
    14:00 +9°C° 0 mm 2 mps 681 mmHg 65%
    15:00 +8°C° 0 mm 2 mps 681 mmHg 66%
    16:00 +8°C° 0 mm 2 mps 680 mmHg 67%
    17:00 +6°C° 0 mm 2 mps 681 mmHg 75%
    18:00 +4°C° 0 mm 2 mps 681 mmHg 83%
    19:00 +4°C° 0 mm 1 mps 681 mmHg 90%
    20:00 +3°C° 0 mm 1 mps 681 mmHg 90%
    21:00 +3°C° 0 mm 1 mps 681 mmHg 90%
    22:00 +3°C° 0 mm 1 mps 681 mmHg 90%
    23:00 +3°C° 0 mm 1 mps 681 mmHg 89%

    Day after tomorrow, 22 October, Monday

    Time Temperature Precipitation Wind Pressure Humidity
    00:00 +2°C° 0 mm 1 mps 681 mmHg 87%
    01:00 +2°C° 0 mm 1 mps 680 mmHg 86%
    02:00 +2°C° 0 mm 1 mps 680 mmHg 84%
    03:00 +2°C° 0 mm 1 mps 680 mmHg 83%
    04:00 +2°C° 0 mm 1 mps 680 mmHg 81%
    05:00 +2°C° 0 mm 1 mps 680 mmHg 79%
    06:00 +2°C° 0 mm 1 mps 680 mmHg 77%
    07:00 +2°C° 0 mm 1 mps 680 mmHg 76%
    08:00 +5°C° 0 mm 1 mps 680 mmHg 67%
    09:00 +7°C° 0 mm 1 mps 681 mmHg 59%
    10:00 +10°C° 0 mm 1 mps 681 mmHg 50%
    11:00 +10°C° 0 mm 1 mps 681 mmHg 51%
    12:00 +10°C° 0 mm 2 mps 681 mmHg 51%
    13:00 +12°C° 0 mm 2 mps 680 mmHg 51%
    14:00 +10°C° 0 mm 2 mps 680 mmHg 57%
    15:00 +9°C° 0 mm 2 mps 680 mmHg 63%
    16:00 +8°C° 0 mm 2 mps 680 mmHg 70%
    17:00 +7°C° 0 mm 2 mps 680 mmHg 77%
    18:00 +6°C° 0 mm 2 mps 680 mmHg 85%
    19:00 +6°C° 0 mm 1 mps 681 mmHg 93%
    20:00 +6°C° 0 mm 1 mps 681 mmHg 93%
    21:00 +5°C° 0 mm 2 mps 681 mmHg 93%
    22:00 +4°C° 0 mm 2 mps 682 mmHg 93%
    23:00 +4°C° 0 mm 2 mps 682 mmHg 93%

    23 October, Tuesday

    Time Temperature Precipitation Wind Pressure Humidity
    00:00 +4°C° 0 mm 2 mps 682 mmHg 92%
    01:00 +4°C° 0 mm 2 mps 682 mmHg 92%
    02:00 +4°C° 0 mm 2 mps 682 mmHg 93%
    03:00 +3°C° 0 mm 2 mps 682 mmHg 93%
    04:00 +3°C° 0 mm 2 mps 682 mmHg 93%
    05:00 +3°C° 0.1 mm 2 mps 682 mmHg 92%
    06:00 +3°C° 0.1 mm 2 mps 682 mmHg 91%
    07:00 +3°C° 0.1 mm 2 mps 682 mmHg 89%
    08:00 +4°C° 0.1 mm 2 mps 683 mmHg 86%
    09:00 +5°C° 0.1 mm 2 mps 683 mmHg 84%
    10:00 +6°C° 0.1 mm 2 mps 683 mmHg 81%
    11:00 +6°C° 0.1 mm 2 mps 683 mmHg 79%
    12:00 +7°C° 0.1 mm 2 mps 682 mmHg 78%
    13:00 +7°C° 0.1 mm 2 mps 682 mmHg 76%
    14:00 +7°C° 0 mm 2 mps 682 mmHg 78%
    15:00 +7°C° 0 mm 2 mps 681 mmHg 79%
    16:00 +6°C° 0 mm 2 mps 681 mmHg 80%
    17:00 +5°C° 0 mm 2 mps 681 mmHg 85%
    18:00 +4°C° 0 mm 2 mps 682 mmHg 89%
    19:00 +3°C° 0 mm 2 mps 682 mmHg 93%
    20:00 +3°C° 0 mm 2 mps 682 mmHg 92%
    21:00 +3°C° 0 mm 2 mps 682 mmHg 91%
    22:00 +3°C° 0 mm 2 mps 681 mmHg 90%
    23:00 +3°C° 0.1 mm 2 mps 681 mmHg 87%

    24 October, Wednesday

    Time Temperature Precipitation Wind Pressure Humidity
    00:00 +4°C° 0.1 mm 2 mps 681 mmHg 84%
    01:00 +3°C° 0.1 mm 3 mps 681 mmHg 81%
    02:00 +3°C° 0.3 mm 3 mps 680 mmHg 82%
    03:00 +4°C° 0.3 mm 3 mps 680 mmHg 82%
    04:00 +4°C° 0.3 mm 3 mps 679 mmHg 82%
    05:00 +4°C° 0.7 mm 3 mps 679 mmHg 85%
    06:00 +4°C° 0.7 mm 3 mps 679 mmHg 88%
    07:00 +4°C° 0.7 mm 3 mps 679 mmHg 91%
    08:00 +5°C° 1.1 mm 3 mps 679 mmHg 91%
    09:00 +5°C° 1.1 mm 3 mps 679 mmHg 92%
    10:00 +5°C° 1.1 mm 3 mps 679 mmHg 93%
    11:00 +7°C° 0.9 mm 3 mps 679 mmHg 93%
    12:00 +7°C° 0.9 mm 3 mps 679 mmHg 93%
    13:00 +6°C° 0.9 mm 4 mps 678 mmHg 93%
    14:00 +7°C° 1.1 mm 3 mps 678 mmHg 94%
    15:00 +7°C° 1.1 mm 3 mps 678 mmHg 94%
    16:00 +7°C° 1.1 mm 3 mps 678 mmHg 95%
    17:00 +7°C° 1.4 mm 3 mps 679 mmHg 95%
    18:00 +7°C° 1.4 mm 3 mps 679 mmHg 95%
    19:00 +8°C° 1.4 mm 3 mps 679 mmHg 96%
    20:00 +8°C° 1.4 mm 3 mps 679 mmHg 96%
    21:00 +8°C° 1.4 mm 3 mps 680 mmHg 96%
    22:00 +8°C° 1.4 mm 3 mps 680 mmHg 96%
    23:00 +8°C° 1.2 mm 3 mps 680 mmHg 96%

    25 October, Thursday

    Time Temperature Precipitation Wind Pressure Humidity
    00:00 +8°C° 1.2 mm 3 mps 680 mmHg 97%
    01:00 +8°C° 1.2 mm 3 mps 680 mmHg 97%
    02:00 +8°C° 0.9 mm 3 mps 680 mmHg 97%
    03:00 +8°C° 0.9 mm 3 mps 680 mmHg 97%
    04:00 +8°C° 0.9 mm 2 mps 680 mmHg 97%
    05:00 +7°C° 0.3 mm 2 mps 680 mmHg 97%
    06:00 +7°C° 0.3 mm 2 mps 680 mmHg 97%
    07:00 +7°C° 0.3 mm 2 mps 680 mmHg 97%
    08:00 +8°C° 0.1 mm 2 mps 680 mmHg 94%
    09:00 +9°C° 0.1 mm 2 mps 680 mmHg 91%
    10:00 +10°C° 0.1 mm 2 mps 680 mmHg 88%
    11:00 +12°C° 0 mm 2 mps 680 mmHg 83%
    12:00 +13°C° 0 mm 2 mps 680 mmHg 78%
    13:00 +14°C° 0 mm 2 mps 680 mmHg 72%
    14:00 +13°C° 0 mm 2 mps 679 mmHg 75%
    15:00 +13°C° 0 mm 2 mps 679 mmHg 78%
    16:00 +12°C° 0 mm 2 mps 679 mmHg 81%
    17:00 +10°C° 0 mm 2 mps 679 mmHg 85%
    18:00 +10°C° 0 mm 1 mps 678 mmHg 89%
    19:00 +8°C° 0 mm 1 mps 678 mmHg 93%
    20:00 +7°C° 0 mm 2 mps 678 mmHg 94%
    21:00 +7°C° 0 mm 2 mps 678 mmHg 94%
    22:00 +7°C° 0 mm 2 mps 678 mmHg 94%
    23:00 +6°C° 0 mm 2 mps 678 mmHg 93%
    Show more